Погода в Котласе

Поиск расширенной информации на нашем сайте:

Полезная информация:

Новости сайта



02.01.2020
Опубликован Долгосрочный прогноз погоды по городам России и ближнего зарубежья на январь 2020 года.
Карты: Прогноз на январь и февраль 2020 года, Сравнение прогнозируемой аномалии приземной температуры воздуха на январь 2020 года по разным моделям.




Погода в Котласе - сегодня

Время (UTC), дата Ветер
(°,м/с) 
Видим.   Явления Облачность Т
(°С)
Тd
(°С)
f(%) Тe
(°С)
Pmin
(гПа)
dP
(гПа)
Po
(мм)
O2
(г/м3)
Тmin Tmax R s Состояние
почвы
06 05.04.20 280 (З) 20000 м    8/4 600 м верхняя 
[Sc|Ci ing]
+0.9 -7.6 53 -1  1013.3  755  304           
09 05.04.20 340 (С) 20000 м    6/3 600 м средняя 
[Sc|Ac trans]
+3.8 -11.2 32 +3  1013.6  0.5  755  301           
12 05.04.20 240 (ЮЗ) 20000 м  в посл. час морось  9/5 300 м кучево-дожд., средняя, верхняя 
[Cb cap|Ac trans|Ci fib]
+2 -5.6 57 +1  1013.8  755  303           
15 05.04.20 тихо ()   20000 м  в посл. час ливневой снег  9/6 480 м кучево-дожд., средняя 
[Cb cap|Ac trans]
-1.1 -1.2 99 -1  1014.4  0.6  755  306    +4.3  0.5     
18 05.04.20 240 (ЮЗ) 10 км  {ливн. осадки}  10/6 360 м средняя, верхняя 
[St|Ac trans|Ci fib]
-1.7 -1.9 99 -1  1014.5  0.1  756  307           
21 05.04.20 310 (СЗ) 10 км  {ливн. осадки}  9/4 300 м средняя, верхняя 
[Sc|Ac trans|Ci fib]
-2.1 -3.3 91 -5  1015.3  0.8  756  307           
00 06.04.20 320 (СЗ) 10 км  {ливн. осадки}  4/0 средняя, верхняя 
[Ac trans|Ci fib]
-3.8 -5.9 85 -7  1016.7  1.3  757  310           
03 06.04.20 310 (СЗ) 20000 м    8/5 1000 м верхняя 
[Sc|Ci fib]
-4.9 -7.3 83 -7  1019.4  2.6  759  312  -5    0.0  равномерный
сухой снег
100% 
06 06.04.20 340 (С) 20000 м  {ливн. осадки}  9/9 1140 м 
[Sc]
-1.6 -8.5 59 -5  1020.9  1.7  760  309           
09 06.04.20 350 (С) 20000 м  в посл. час ливневой снег  8/5 600 м кучево-дожд., средняя 
[Cb cap|Ac trans]
-0.4 -8.6 54 -3  1022.5  1.6  762  308           
12 06.04.20 340 (С) 5{11}  20000 м  {ливн. осадки}  8/5 600 м средняя, верхняя 
[Sc|Ac trans|Ci fib]
+1.9 -8.9 45 -1  1023.6  1.1  762  306           
15 06.04.20 310 (СЗ) 4{10}  20000 м    3/1 1000 м верхняя 
[Sc|Ci fib]
+1.6 -9.9 42 -1  1024.9  1.3  763  307    +2.5  0.0     
18 06.04.20 280 (З) 10 км    4/0 верхняя 
[Ci fib]
-1.2 -12.2 43 -2  1025.7  0.8  764  310           
21 06.04.20 310 (СЗ) 10 км    3/0 верхняя 
[Ci fib]
-1.7 -9.5 55 -4  1026.4  0.7  764  311           
00 07.04.20 280 (З) 10 км    1/0 верхняя 
[Ci fib]
-3.1 -10.3 57 -5  1027  0.4  765  313           
03 07.04.20 290 (З) 20000 м    3/0 средняя, верхняя 
[Ac trans|Ci fib]
-4.4 -10.4 63 -7  1028  766  315  -4.4      мокрый или
старый снег
10-40% 
06 07.04.20 330 (СЗ) 20000 м    1/0 верхняя 
[Ci fib]
-1.2 -8.3 58 -4  1027.6  -0.3  765  311           
09 07.04.20 320 (СЗ) 20000 м    3/1 1000 м верхняя 
[Sc|Ci fib]
+1.6 -11.5 37 -1  1026  -1.5  764  307           
12 07.04.20 350 (С) 4{10}  20000 м    3/0 средняя, верхняя 
[Ac trans|Ci fib]
+3.5 -14.6 25 +2  1023.7  -2.2  763  305           
15 07.04.20 360 (С) 20000 м    3/0 средняя, верхняя 
[Ac trans|Ci fib]
+3 -15.1 25 +4  1021.5  -2.2  761  305    +3.6       
18 07.04.20 тихо ()   10 км    9/0 средняя 
[Ac trans]
-1.7 -9.1 57 -2  1020.1  -1.5  760  309           
21 07.04.20 160 (Ю) 10 км    10/0 средняя 
[Ac und]
-1.7 -7 67 -3  1017.7  -2.4  758  308           
00 08.04.20 160 (Ю) 10 км    9/0 средняя 
[Ac trans]
-2.4 -8.4 63 -3  1013.7  -4  755  308           
03 08.04.20 160 (Ю) 20000 м    10/0 средняя 
[Ac und]
-1 -7.6 61 -4  1009.9  -3.8  752  305  -3.1      мокрый или
старый снег
10-40% 
06 08.04.20 180 (Ю) 20000 м    10/4 1000 м средняя, верхняя 
[Sc|Ac trans|Ci fib]
+1 -6.6 57 -1  1007.8  -2.1  751  302           
Время (UTC), дата Ветер
(°,м/с) 
Видим.   Явления Облачность Т
(°С)
Тd
(°С)
f(%) Тe
(°С)
Pmin
(гПа)
dP
(гПа)
Po
(мм)
O2
(г/м3)
Тmin Tmax R s Состояние
почвы

Для получения пояснительной информации подведите курсор к названию столбца.

ПОГОДА в Котласе - архив

Всё, что Вы хотите узнать о погоде в Котласе - удобно и подробно!

Выберите нужную дату (начиная с 1 января 2019* года) и нажмите кнопку "Найти".
Будут отображены архивные сводки погоды по пункту Котлас, начиная с указанной даты.


Отображать данные в формате CSV (для использования в таблицах Excel)


Внимание! Наш архив погоды предназначен исключительно для личного некоммерческого использования в познавательных целях. Если Вам необходимы официальные справки о состоянии погоды (для производственных, юридических, коммерческих и т.п. целей), обращайтесь в органы Росгидромета.

*Примечание: данная дата относится к архиву по метеостанциям СССР (Россия, СНГ, Балтия).
Архив по метеостанциям Зарубежной Европы и Азии (кроме Китая) хранится 10 дней, по другим регионам земного шара (Китай, Африка, Америка, Австралия, Океания) - 1 день.

Котлас - район местоположения метеостанции


Название, широта, долгота, высота метеостанции:
Котлас 61.2°ш. 46.7°д. 56 м над ур. моря [Российская Федерация]

Дополнительная информация

В oтличие oт бoльшинства пoгoдных сайтoв мы публикуем пoдрoбную метеoинфoрмацию в детальнoм прoфессиoнальнoм фoрмате.

Характеристики температуры и влажнoсти вoздуха измеряются на высoте 2 м в тени вдали oт зданий и деревьев.
Скoрoсть ветра измеряется на высoте 10 м (на урoвне рoста челoвека скoрoсть ветра ниже в 1.5-2 раза). Если метеoстанция нахoдится в гoрoде или в лесу, тo скoрoсть ветра занижена на 2-4 м/с пo сравнению с oткрытым местoм. Скoрoсть ветра над акватoриями крупных рек и oзёр, а также на вершинах хoлмoв на 2-5 м/с выше, чем в oбычных услoвиях.
Атмoсфернoе давление в разных тoчках местнoсти мoжет значительнo oтличаться oт давления на метеoстанции, в зависимoсти oт услoвий рельефа (при пoдъёме на 10 м давление пoнижается примернo на 1 мм рт.ст.).